カタログに戻る

BREEZE-M R/B

LostHEO
NORAD 39523·ROCKET BODY·🇷🇺 Russia

打ち上げ Feb 14, 2014 から Baikonur Cosmodrome

Loading…

次のパス (今後24時間)

TLE

古いSource: Space-Track

元期: Aug 5, 2026, 14:38 UTC

1 39523U 14007B   26217.61023432 -.00000144  00000-0  00000+0 0  9992
2 39523  14.3704  31.9971 4640556 123.1582 290.1916  1.88487883 85865

AllMySatでBREEZE-M R/Bをリアルタイム追跡

Download on the App Store